Date String (YYYY-MM-DD hh:mm:ss) UTC,Instrument flags,Ambient pressure (hPa),Sample flow (lpm),Bypass flow (lpm),Sample temperature (°C),Ambient temperature (°C),ASC tube jacket temperature (°C),LED temperature (°C),Box temperature (°C),Sample RH (%),Span deviation,Mass concentration (μg/m³),Mass concentration (μg/m³),Mass concentration (μg/m³)
DateTimeUTC,F1_M11,P_M11,Q1_M11,Q2_M11,T1_M11,T2_M11,T3_M11,T4_M11,T5_M11,U1_M11,ZSPAN_M11,X0_M11,X2_M11,X1_M11
2022-05-25 02:00:00,,0826.2,5.00,0.00,28.4,27.4,00.0,37.3,30.3,19.4,0000.0,0008.71,0005.58,0005.15
2022-05-25 02:01:00,,0826.2,5.01,0.00,28.4,27.4,00.0,37.3,30.3,19.5,0000.0,0008.78,0005.55,0005.14
2022-05-25 02:02:00,,0826.2,4.99,0.00,28.4,27.4,00.0,37.3,30.3,19.4,0000.0,0008.66,0005.52,0005.14
2022-05-25 02:03:00,,0826.2,5.00,0.00,28.4,27.4,00.0,37.4,30.3,19.5,0000.0,0008.69,0005.52,0005.15
2022-05-25 02:04:00,,0826.2,5.00,0.00,28.4,27.4,00.0,37.4,30.3,19.6,0000.0,0008.69,0005.51,0005.13
2022-05-25 02:05:00,,0826.2,5.00,0.00,28.4,27.4,00.0,37.4,30.3,19.7,0000.0,0008.72,0005.51,0005.12
2022-05-25 02:06:00,,0826.3,4.99,0.00,28.4,27.4,00.0,37.4,30.3,19.8,0000.0,0008.72,0005.50,0005.11
2022-05-25 02:07:00,,0826.3,5.00,0.00,28.4,27.4,00.0,37.4,30.3,19.8,0000.0,0008.70,0005.50,0005.11
2022-05-25 02:08:00,,0826.3,5.00,0.00,28.4,27.4,00.0,37.4,30.3,19.7,0000.0,0008.60,0005.47,0005.12
2022-05-25 02:09:00,,0826.3,4.99,0.00,28.5,27.4,00.0,37.4,30.3,19.8,0000.0,0008.59,0005.48,0005.13
2022-05-25 02:10:00,,0826.4,4.99,0.00,28.5,27.4,00.0,37.4,30.3,19.9,0000.0,0008.63,0005.49,0005.16
2022-05-25 02:11:00,,0826.3,5.00,0.00,28.5,27.4,00.0,37.4,30.3,19.9,0000.0,0008.50,0005.50,0005.18
2022-05-25 02:12:00,,0826.3,5.01,0.00,28.5,27.4,00.0,37.4,30.3,19.8,0000.0,0008.35,0005.52,0005.19
2022-05-25 02:13:00,,0826.4,5.00,0.00,28.5,27.4,00.0,37.4,30.3,19.7,0000.0,0008.34,0005.52,0005.20
2022-05-25 02:14:00,,0826.4,5.00,0.00,28.5,27.4,00.0,37.4,30.3,19.7,0000.0,0008.29,0005.52,0005.20
2022-05-25 02:15:00,,0826.4,4.99,0.00,28.5,27.4,00.0,37.4,30.3,19.7,0000.0,0008.33,0005.55,0005.22
2022-05-25 02:16:00,,0826.4,4.99,0.00,28.5,27.4,00.0,37.4,30.3,19.6,0000.0,0008.24,0005.53,0005.23
2022-05-25 02:17:00,,0826.4,5.01,0.00,28.5,27.4,00.0,37.4,30.3,19.7,0000.0,0008.23,0005.54,0005.25
2022-05-25 02:18:00,,0826.4,5.00,0.00,28.4,27.4,00.0,37.4,30.3,19.8,0000.0,0008.25,0005.56,0005.28
2022-05-25 02:19:00,,0826.4,5.00,0.00,28.4,27.4,00.0,37.4,30.3,19.7,0000.0,0008.30,0005.58,0005.29
2022-05-25 02:20:00,,0826.5,5.01,0.00,28.4,27.4,00.0,37.4,30.3,19.7,0000.0,0008.30,0005.58,0005.29
2022-05-25 02:21:00,,0826.5,5.00,0.00,28.4,27.4,00.0,37.4,30.3,19.7,-000.8,0008.26,0005.56,0005.26
2022-05-25 02:22:00,,0826.5,5.00,0.00,28.4,27.4,00.0,37.4,30.3,19.7,-000.4,0008.25,0005.56,0005.24
2022-05-25 02:23:00,,0826.5,5.00,0.00,28.4,27.4,00.0,37.4,30.3,19.6,-000.3,0008.19,0005.52,0005.21
2022-05-25 02:24:00,,0826.5,5.00,0.00,28.4,27.4,00.0,37.4,30.3,19.6,-001.1,0008.18,0005.49,0005.17
2022-05-25 02:25:00,,0826.5,5.00,0.00,28.4,27.4,00.0,37.4,30.3,19.4,-000.2,0008.13,0005.43,0005.11
2022-05-25 02:26:00,,0826.5,5.01,0.00,28.4,27.4,00.0,37.4,30.3,19.5,0000.0,0007.95,0005.35,0005.05
2022-05-25 02:27:00,,0826.5,4.99,0.00,28.4,27.4,00.0,37.4,30.3,19.5,0000.0,0007.97,0005.34,0005.01
2022-05-25 02:28:00,,0826.5,4.99,0.00,28.4,27.4,00.0,37.4,30.3,19.6,0000.0,0007.89,0005.30,0004.97
2022-05-25 02:29:00,,0826.5,5.00,0.00,28.4,27.4,00.0,37.4,30.3,19.7,0000.0,0007.81,0005.25,0004.92
2022-05-25 02:30:00,,0826.5,5.00,0.00,28.4,27.4,00.0,37.4,30.3,19.8,0000.0,0007.76,0005.21,0004.90
2022-05-25 02:31:00,,0826.5,5.00,0.00,28.4,27.3,00.0,37.4,30.2,19.9,0000.0,0007.82,0005.25,0004.92
2022-05-25 02:32:00,,0826.6,4.99,0.00,28.4,27.3,00.0,37.4,30.2,20.0,0000.0,0007.99,0005.32,0004.97
2022-05-25 02:33:00,,0826.6,5.00,0.00,28.4,27.2,00.0,37.4,30.1,20.0,0000.0,0008.01,0005.33,0004.98
2022-05-25 02:34:00,,0826.6,4.99,0.00,28.3,27.2,00.0,37.4,30.1,20.0,0000.0,0008.06,0005.34,0004.98
2022-05-25 02:35:00,,0826.6,5.01,0.00,28.3,27.2,00.0,37.4,30.1,19.8,0000.0,0008.00,0005.32,0004.96
2022-05-25 02:36:00,,0826.6,4.99,0.00,28.3,27.2,00.0,37.4,30.1,19.6,0000.0,0007.93,0005.28,0004.94
2022-05-25 02:37:00,,0826.6,5.00,0.00,28.3,27.2,00.0,37.3,30.1,19.6,0000.0,0007.89,0005.25,0004.91
2022-05-25 02:38:00,,0826.6,5.00,0.00,28.3,27.2,00.0,37.3,30.1,19.5,-000.2,0008.11,0005.19,0004.86
2022-05-25 02:39:00,,0826.6,5.01,0.00,28.3,27.2,00.0,37.3,30.1,19.5,0000.0,0008.17,0005.14,0004.79
2022-05-25 02:40:00,,0826.6,5.00,0.00,28.3,27.2,00.0,37.3,30.1,19.3,0000.0,0008.09,0005.06,0004.71
2022-05-25 02:41:00,,0826.6,5.00,0.00,28.3,27.1,00.0,37.3,30.1,19.0,0000.0,0008.07,0004.98,0004.62
2022-05-25 02:42:00,,0826.6,4.99,0.00,28.3,27.1,00.0,37.3,30.1,18.9,0000.0,0007.95,0004.86,0004.49
2022-05-25 02:43:00,,0826.6,5.01,0.00,28.2,27.1,00.0,37.3,30.0,18.7,0000.0,0007.74,0004.70,0004.37
2022-05-25 02:44:00,,0826.7,5.00,0.00,28.2,27.0,00.0,37.3,30.0,18.4,0000.0,0007.73,0004.63,0004.30
2022-05-25 02:45:00,,0826.6,5.01,0.00,28.2,26.9,00.0,37.3,29.9,18.2,0000.0,0007.98,0004.61,0004.24
2022-05-25 02:46:00,,0826.6,4.99,0.00,28.2,26.9,00.0,37.3,29.9,18.0,0000.0,0008.35,0004.59,0004.22
2022-05-25 02:47:00,,0826.6,5.01,0.00,28.2,26.9,00.0,37.2,29.9,17.6,0000.0,0008.40,0004.59,0004.20
2022-05-25 02:48:00,,0826.6,4.99,0.00,28.2,26.9,00.0,37.2,29.9,17.7,0000.0,0008.43,0004.60,0004.20
2022-05-25 02:49:00,,0826.6,4.98,0.00,28.2,26.9,00.0,37.2,29.9,18.1,0000.0,0008.75,0004.61,0004.21
2022-05-25 02:50:00,,0826.6,5.00,0.00,28.1,26.9,00.0,37.2,29.9,18.2,0000.0,0009.07,0004.66,0004.24
2022-05-25 02:51:00,,0826.6,4.99,0.00,28.1,26.9,00.0,37.2,29.9,18.1,0000.0,0009.13,0004.69,0004.29
2022-05-25 02:52:00,,0826.7,5.01,0.00,28.1,26.9,00.0,37.2,29.9,18.0,0000.0,0009.10,0004.70,0004.32
2022-05-25 02:53:00,,0826.6,5.00,0.00,28.1,26.9,00.0,37.1,29.8,18.2,0000.0,0009.08,0004.71,0004.34
2022-05-25 02:54:00,,0826.6,5.01,0.00,28.1,26.9,00.0,37.1,29.8,18.4,0000.0,0009.07,0004.74,0004.37
2022-05-25 02:55:00,,0826.6,5.00,0.00,28.1,26.9,00.0,37.1,29.9,18.5,0000.0,0009.04,0004.75,0004.38
2022-05-25 02:56:00,,0826.6,5.00,0.00,28.1,26.9,00.0,37.1,29.9,18.5,0000.0,0008.74,0004.69,0004.37
2022-05-25 02:57:00,,0826.6,5.00,0.00,28.1,27.0,00.0,37.1,29.9,18.6,0000.0,0008.27,0004.66,0004.36
2022-05-25 02:58:00,,0826.6,5.00,0.00,28.1,27.0,00.0,37.1,29.9,18.5,0000.0,0008.24,0004.66,0004.38
2022-05-25 02:59:00,,0826.6,5.01,0.00,28.1,27.0,00.0,37.1,29.9,18.2,0000.0,0008.26,0004.66,0004.38
